******** Week 357 almanac for PRN-1 ******** ID: 1 Health: 0 Eccentricity: 0.001505851746 Time of Applicability(s): 405504 Orbital Inclination(rad): 0.9584108231 Rate of Right Ascen(r/s): -8.000333246e-09 SQRT(A) (m 1/2): 5153.579102 Right Ascen at Week(rad): -2.771920887 Argument of Perigee(rad): 0.0448764282 Mean Anom(rad): -0.1300996221 Af0(s): 0.0002630323364 Af1(s/s): -3.637979e-12 week: 357 ******** Week 357 almanac for PRN-2 ******** ID: 2 Health: 0 Eccentricity: 0.01695203781 Time of Applicability(s): 405504 Orbital Inclination(rad): 0.9637917401 Rate of Right Ascen(r/s): -7.840326581e-09 SQRT(A) (m 1/2): 5153.555176 Right Ascen at Week(rad): -2.93446967 Argument of Perigee(rad): -0.8261864732 Mean Anom(rad): 1.302319354 Af0(s): 2.939329834e-05 Af1(s/s): 7.275958e-12 week: 357 ******** Week 357 almanac for PRN-3 ******** ID: 3 Health: 0 Eccentricity: 0.006418704987 Time of Applicability(s): 405504 Orbital Inclination(rad): 0.9928594776 Rate of Right Ascen(r/s): -7.806039438e-09 SQRT(A) (m 1/2): 5153.592285 Right Ascen at Week(rad): -1.785397468 Argument of Perigee(rad): 1.205236646 Mean Anom(rad): -2.304090826 Af0(s): 0.0004514509155 Af1(s/s): -1.091394e-11 week: 357 ******** Week 357 almanac for PRN-4 ******** ID: 4 Health: 0 Eccentricity: 0.003738880157 Time of Applicability(s): 405504 Orbital Inclination(rad): 0.9705628271 Rate of Right Ascen(r/s): -7.646032773e-09 SQRT(A) (m 1/2): 5153.697266 Right Ascen at Week(rad): -0.7142485694 Argument of Perigee(rad): -2.88941273 Mean Anom(rad): 0.7053356767 Af0(s): 3.466901855e-05 Af1(s/s): 3.637979e-12 week: 357 ******** Week 357 almanac for PRN-5 ******** ID: 5 Health: 0 Eccentricity: 0.005378723144 Time of Applicability(s): 405504 Orbital Inclination(rad): 0.9794371457 Rate of Right Ascen(r/s): -7.954617056e-09 SQRT(A) (m 1/2): 5153.647461 Right Ascen at Week(rad): -1.844928357 Argument of Perigee(rad): 1.42045123 Mean Anom(rad): 1.350500433 Af0(s): -0.0001808818359 Af1(s/s): 0 week: 357 ******** Week 357 almanac for PRN-6 ******** ID: 6 Health: 0 Eccentricity: 0.003872871399 Time of Applicability(s): 405504 Orbital Inclination(rad): 0.9873287578 Rate of Right Ascen(r/s): -7.691748963e-09 SQRT(A) (m 1/2): 5153.58252 Right Ascen at Week(rad): -2.821891734 Argument of Perigee(rad): -0.5887857189 Mean Anom(rad): -0.9586308838 Af0(s): -0.0004815978882 Af1(s/s): -3.637979e-12 week: 357 ******** Week 357 almanac for PRN-7 ******** ID: 7 Health: 0 Eccentricity: 0.02035045624 Time of Applicability(s): 405504 Orbital Inclination(rad): 0.9512442566 Rate of Right Ascen(r/s): -7.748894201e-09 SQRT(A) (m 1/2): 5153.574219 Right Ascen at Week(rad): 0.2942273273 Argument of Perigee(rad): -1.997806245 Mean Anom(rad): -1.841709843 Af0(s): -0.000116819519 Af1(s/s): -3.637979e-12 week: 357 ******** Week 357 almanac for PRN-8 ******** ID: 8 Health: 0 Eccentricity: 0.01153087616 Time of Applicability(s): 405504 Orbital Inclination(rad): 0.943700187 Rate of Right Ascen(r/s): -7.851755628e-09 SQRT(A) (m 1/2): 5153.62793 Right Ascen at Week(rad): 2.342190175 Argument of Perigee(rad): 0.5144943851 Mean Anom(rad): 0.9964665799 Af0(s): 0.0003896496216 Af1(s/s): -3.637979e-12 week: 357 ******** Week 357 almanac for PRN-9 ******** ID: 9 Health: 0 Eccentricity: 0.003385066986 Time of Applicability(s): 405504 Orbital Inclination(rad): 0.9646665885 Rate of Right Ascen(r/s): -7.737465153e-09 SQRT(A) (m 1/2): 5153.744141 Right Ascen at Week(rad): -0.7783645472 Argument of Perigee(rad): 2.075289877 Mean Anom(rad): 1.587907928 Af0(s): 0.0006082151733 Af1(s/s): 0 week: 357 ******** Week 357 almanac for PRN-10 ******** ID: 10 Health: 0 Eccentricity: 0.01096105576 Time of Applicability(s): 405504 Orbital Inclination(rad): 0.9923920928 Rate of Right Ascen(r/s): -7.806039438e-09 SQRT(A) (m 1/2): 5153.605469 Right Ascen at Week(rad): -1.787908913 Argument of Perigee(rad): -2.25857886 Mean Anom(rad): 2.99697377 Af0(s): -0.0004642633789 Af1(s/s): 0 week: 357 ******** Week 357 almanac for PRN-11 ******** ID: 11 Health: 0 Eccentricity: 0.0022149086 Time of Applicability(s): 405504 Orbital Inclination(rad): 0.9641812274 Rate of Right Ascen(r/s): -7.931758961e-09 SQRT(A) (m 1/2): 5153.518066 Right Ascen at Week(rad): -2.802703117 Argument of Perigee(rad): -2.29159877 Mean Anom(rad): 0.08354839847 Af0(s): -0.0003489512085 Af1(s/s): 1.455192e-11 week: 357 ******** Week 357 almanac for PRN-12 ******** ID: 12 Health: 0 Eccentricity: 0.009057044983 Time of Applicability(s): 405504 Orbital Inclination(rad): 0.9588063025 Rate of Right Ascen(r/s): -7.840326581e-09 SQRT(A) (m 1/2): 5153.724609 Right Ascen at Week(rad): 1.411975387 Argument of Perigee(rad): 1.553234569 Mean Anom(rad): -2.479763085 Af0(s): -0.0004800905395 Af1(s/s): 0 week: 357 ******** Week 357 almanac for PRN-13 ******** ID: 13 Health: 0 Eccentricity: 0.009947776794 Time of Applicability(s): 405504 Orbital Inclination(rad): 0.9762733103 Rate of Right Ascen(r/s): -7.554600394e-09 SQRT(A) (m 1/2): 5153.630371 Right Ascen at Week(rad): -0.6035203234 Argument of Perigee(rad): 0.9985132608 Mean Anom(rad): 0.7374563955 Af0(s): 0.0005426455078 Af1(s/s): 0 week: 357 ******** Week 357 almanac for PRN-14 ******** ID: 14 Health: 0 Eccentricity: 0.006621837616 Time of Applicability(s): 405504 Orbital Inclination(rad): 0.9421721983 Rate of Right Ascen(r/s): -8.034620388e-09 SQRT(A) (m 1/2): 5153.586426 Right Ascen at Week(rad): 1.357604831 Argument of Perigee(rad): -2.7571346 Mean Anom(rad): -2.655790377 Af0(s): 0.0005803292236 Af1(s/s): 3.637979e-12 week: 357 ******** Week 357 almanac for PRN-15 ******** ID: 15 Health: 0 Eccentricity: 0.01659393311 Time of Applicability(s): 405504 Orbital Inclination(rad): 0.9424478355 Rate of Right Ascen(r/s): -7.988904198e-09 SQRT(A) (m 1/2): 5153.637695 Right Ascen at Week(rad): -0.9219718888 Argument of Perigee(rad): 1.498412358 Mean Anom(rad): -0.005605995709 Af0(s): 0.0003044844238 Af1(s/s): 3.637979e-12 week: 357 ******** Week 357 almanac for PRN-16 ******** ID: 16 Health: 0 Eccentricity: 0.01506233215 Time of Applicability(s): 405504 Orbital Inclination(rad): 0.9579434383 Rate of Right Ascen(r/s): -7.851755628e-09 SQRT(A) (m 1/2): 5153.579102 Right Ascen at Week(rad): 1.42898999 Argument of Perigee(rad): 0.9269412226 Mean Anom(rad): 2.011234569 Af0(s): 0.0001635473267 Af1(s/s): 7.275958e-12 week: 357 ******** Week 357 almanac for PRN-17 ******** ID: 17 Health: 0 Eccentricity: 0.01272249222 Time of Applicability(s): 405504 Orbital Inclination(rad): 0.9594774191 Rate of Right Ascen(r/s): -7.737465153e-09 SQRT(A) (m 1/2): 5153.53418 Right Ascen at Week(rad): 2.446596368 Argument of Perigee(rad): -1.125938528 Mean Anom(rad): 0.907992665 Af0(s): -4.748148193e-05 Af1(s/s): -1.091394e-11 week: 357 ******** Week 357 almanac for PRN-18 ******** ID: 18 Health: 0 Eccentricity: 0.005711078644 Time of Applicability(s): 405504 Orbital Inclination(rad): 0.9722825634 Rate of Right Ascen(r/s): -7.840326581e-09 SQRT(A) (m 1/2): 5153.596191 Right Ascen at Week(rad): -2.826666324 Argument of Perigee(rad): -2.861507462 Mean Anom(rad): -1.075164363 Af0(s): -0.0003376460937 Af1(s/s): 1.091394e-11 week: 357 ******** Week 357 almanac for PRN-19 ******** ID: 19 Health: 0 Eccentricity: 0.01105356216 Time of Applicability(s): 405504 Orbital Inclination(rad): 0.9586924524 Rate of Right Ascen(r/s): -7.714607058e-09 SQRT(A) (m 1/2): 5153.668457 Right Ascen at Week(rad): 2.490492712 Argument of Perigee(rad): 2.924745221 Mean Anom(rad): 2.744126473 Af0(s): 0.0005449065308 Af1(s/s): 0 week: 357 ******** Week 357 almanac for PRN-20 ******** ID: 20 Health: 255 Eccentricity: 0.000301361084 Time of Applicability(s): 405504 Orbital Inclination(rad): 0.9601005988 Rate of Right Ascen(r/s): -7.760323248e-09 SQRT(A) (m 1/2): 5153.646973 Right Ascen at Week(rad): -0.7726660483 Argument of Perigee(rad): 1.451356673 Mean Anom(rad): 0.3088686796 Af0(s): 0 Af1(s/s): 0 week: 357 ******** Week 357 almanac for PRN-21 ******** ID: 21 Health: 0 Eccentricity: 0.0006675720215 Time of Applicability(s): 405504 Orbital Inclination(rad): 0.9622817277 Rate of Right Ascen(r/s): -8.114623721e-09 SQRT(A) (m 1/2): 5153.704102 Right Ascen at Week(rad): -1.778600166 Argument of Perigee(rad): -0.4018389259 Mean Anom(rad): -2.70687763 Af0(s): 0.0003135285156 Af1(s/s): 7.275958e-12 week: 357 ******** Week 357 almanac for PRN-22 ******** ID: 22 Health: 0 Eccentricity: 0.01213979721 Time of Applicability(s): 405504 Orbital Inclination(rad): 0.9573801797 Rate of Right Ascen(r/s): -7.863184676e-09 SQRT(A) (m 1/2): 5153.566895 Right Ascen at Week(rad): 1.432336585 Argument of Perigee(rad): -0.9943356349 Mean Anom(rad): 1.557847747 Af0(s): -3.768371582e-05 Af1(s/s): 3.637979e-12 week: 357 ******** Week 357 almanac for PRN-23 ******** ID: 23 Health: 0 Eccentricity: 0.006017208099 Time of Applicability(s): 405504 Orbital Inclination(rad): 0.9874066552 Rate of Right Ascen(r/s): -7.863184676e-09 SQRT(A) (m 1/2): 5153.65625 Right Ascen at Week(rad): -1.819922148 Argument of Perigee(rad): -2.740836054 Mean Anom(rad): -2.19588863 Af0(s): 0.0004831052368 Af1(s/s): 3.637979e-12 week: 357 ******** Week 357 almanac for PRN-24 ******** ID: 24 Health: 0 Eccentricity: 0.01786327362 Time of Applicability(s): 405504 Orbital Inclination(rad): 0.935281269 Rate of Right Ascen(r/s): -7.954617056e-09 SQRT(A) (m 1/2): 5153.593262 Right Ascen at Week(rad): 0.1860925424 Argument of Perigee(rad): 1.133144792 Mean Anom(rad): -0.8606680843 Af0(s): -9.797766113e-05 Af1(s/s): 1.455192e-11 week: 357 ******** Week 357 almanac for PRN-25 ******** ID: 25 Health: 0 Eccentricity: 0.01295614243 Time of Applicability(s): 405504 Orbital Inclination(rad): 0.9471816044 Rate of Right Ascen(r/s): -7.954617056e-09 SQRT(A) (m 1/2): 5153.669434 Right Ascen at Week(rad): 1.318316048 Argument of Perigee(rad): 1.154854965 Mean Anom(rad): -2.626247764 Af0(s): 0.0003512122314 Af1(s/s): -3.637979e-12 week: 357 ******** Week 357 almanac for PRN-26 ******** ID: 26 Health: 0 Eccentricity: 0.01100111008 Time of Applicability(s): 405504 Orbital Inclination(rad): 0.9279888682 Rate of Right Ascen(r/s): -8.183198006e-09 SQRT(A) (m 1/2): 5153.640625 Right Ascen at Week(rad): 1.244093249 Argument of Perigee(rad): 0.7073924693 Mean Anom(rad): 2.833125072 Af0(s): -0.0002577566162 Af1(s/s): -7.275958e-12 week: 357 ******** Week 357 almanac for PRN-27 ******** ID: 27 Health: 0 Eccentricity: 0.0142993927 Time of Applicability(s): 405504 Orbital Inclination(rad): 0.9528321664 Rate of Right Ascen(r/s): -7.771752296e-09 SQRT(A) (m 1/2): 5153.616699 Right Ascen at Week(rad): 2.374057353 Argument of Perigee(rad): 0.8743484516 Mean Anom(rad): 1.092795405 Af0(s): -3.165432129e-05 Af1(s/s): -1.091394e-11 week: 357 ******** Week 357 almanac for PRN-28 ******** ID: 28 Health: 0 Eccentricity: 0.0004005432129 Time of Applicability(s): 405504 Orbital Inclination(rad): 0.9621978382 Rate of Right Ascen(r/s): -7.680319916e-09 SQRT(A) (m 1/2): 5153.730469 Right Ascen at Week(rad): 0.268288596 Argument of Perigee(rad): 0.1650081712 Mean Anom(rad): -1.657597319 Af0(s): -0.0004718001221 Af1(s/s): 7.275958e-12 week: 357 ******** Week 357 almanac for PRN-29 ******** ID: 29 Health: 0 Eccentricity: 0.003309726715 Time of Applicability(s): 405504 Orbital Inclination(rad): 0.962137917 Rate of Right Ascen(r/s): -7.691748963e-09 SQRT(A) (m 1/2): 5153.723633 Right Ascen at Week(rad): 2.463263055 Argument of Perigee(rad): 2.742387262 Mean Anom(rad): 0.9632418143 Af0(s): -0.000297701355 Af1(s/s): 7.275958e-12 week: 357 ******** Week 357 almanac for PRN-30 ******** ID: 30 Health: 0 Eccentricity: 0.007986068726 Time of Applicability(s): 405504 Orbital Inclination(rad): 0.93650366 Rate of Right Ascen(r/s): -7.920329913e-09 SQRT(A) (m 1/2): 5153.710449 Right Ascen at Week(rad): 0.2854897038 Argument of Perigee(rad): -2.332114438 Mean Anom(rad): -1.984310884 Af0(s): 9.420928955e-05 Af1(s/s): 1.091394e-11 week: 357 ******** Week 357 almanac for PRN-31 ******** ID: 31 Health: 0 Eccentricity: 0.01082706451 Time of Applicability(s): 405504 Orbital Inclination(rad): 0.9550013111 Rate of Right Ascen(r/s): -7.771752296e-09 SQRT(A) (m 1/2): 5153.716309 Right Ascen at Week(rad): 0.3183609347 Argument of Perigee(rad): 0.9369926167 Mean Anom(rad): -2.932676156 Af0(s): -0.0001318930054 Af1(s/s): 3.637979e-12 week: 357 ******** Week 357 almanac for PRN-32 ******** ID: 32 Health: 0 Eccentricity: 0.009302139282 Time of Applicability(s): 405504 Orbital Inclination(rad): 0.9677345501 Rate of Right Ascen(r/s): -7.668890868e-09 SQRT(A) (m 1/2): 5153.681641 Right Ascen at Week(rad): -0.7614237218 Argument of Perigee(rad): -2.010344741 Mean Anom(rad): 1.683511333 Af0(s): -7.612110596e-05 Af1(s/s): 1.818989e-11 week: 357